www.pogodaiklimat.ru

Погода и климат >> Архив погоды >> Канада >> Robertson Lake


ПОГОДА в Robertson Lake

  • Прогноз погоды в Robertson Lake
  • Монитор погоды в Robertson Lake
  • Климат города

АРХИВ ПОГОДЫ в Robertson Lake

Время (UTC), дата Ветер
(напр.,м/с)
 
Видим.   Явления Облачность Т
(С)
Тd
(С)
f
(%)
Тe
(С)
Тes
(С)
Комфортность P
(гПа)
Po
(гПа)
Тmin
(С)
Tmax
(С)
R
(мм)
R24
(мм)
S
(см)
06 6.12 З 5 н/о н/о -21.6 -23.5 85 -32 -32 опасность
обморожения
1013.7 980.9 9
18 6.12 ЮЗ 6 н/о н/о -16.2 -17.5 90 -26 -26 1007.1 975.1
21 6.12 З 7 н/о н/о -13.6 -14.6 92 -24 -24 973.0
00 7.12 н/о н/о -16.7 -18.2 88 973.5
03 7.12 С 8 н/о н/о -23.8 -25.8 83 -37 -37 опасность
обморожения
976.3
06 7.12 0 н/о -26.7 978.6
09 7.12 СЗ 5 н/о н/о -22.9 -24.9 84 -33 -33 опасность
обморожения
1012.3 980.2
12 7.12 З 3 н/о н/о -22.3 -24.2 84 -31 -31 опасность
обморожения
1013.2 981.0 70
15 7.12 З 2 н/о н/о -23.3 -25.4 83 -30 -30 1012.8 980.3
21 7.12 Ю 12 н/о н/о -19.5 -21.2 86 -34 -34 опасность
обморожения
1005.7 973.6
03 8.12 СЗ 13 н/о {осадки} н/о -11.1 -11.9 94 -23 -23 1002.3 970.6 0.2
06 8.12 СЗ 14 н/о {осадки} н/о -18.2 -19.7 88 -33 -33 опасность
обморожения
973.4 0.2
09 8.12 С 9 н/о н/о -21.2 -23.0 85 -35 -35 опасность
обморожения
1010.4 978.2
12 8.12 С 7 н/о н/о -24.5 -26.7 82 -38 -38 опасность
обморожения
1014.2 982.0 -24.5 70
15 8.12 С 5 н/о н/о -26.4 -28.8 80 -38 -38 опасность
обморожения
1015.7 983.5
18 8.12 ЮВ 1 н/о н/о -28.6 -31.2 78 -33 -33 опасность
обморожения
1018.0 985.4 -18.2
21 8.12 ЮВ 2 н/о н/о -29.6 -32.4 77 -37 -37 опасность
обморожения
1018.7 985.9
00 9.12 ЮВ 5 н/о н/о -26.9 -29.4 79 -38 -38 опасность
обморожения
1017.8 985.0 -30.0 -24.5
03 9.12 ЮВ 6 н/о н/о -25.7 -28.0 81 1015.8 983.1
06 9.12 Ю 9 н/о н/о -22.4 -24.4 84 -36 -36 опасность
обморожения
1013.0 980.3 -30.0 -18.2 6
09 9.12 ЮВ 12 н/о н/о -19.7 -21.4 86 -34 -34 опасность
обморожения
1009.5 977.0
12 9.12 ЮВ 11 н/о н/о -17.3 -18.7 89 -30 -30 1007.2 975.0 -26.9 -18.2 0.2 70
15 9.12 Ю 8 н/о {осадки} н/о -14.8 -16.0 91 -26 -26 1006.7 974.7 0.2
18 9.12 Ю 6 н/о {осадки} н/о -14.0 -15.1 91 -23 -23 1008.1 976.2 -30.0 -14.0 0.2
21 9.12 Ю 5 н/о н/о -13.4 -14.4 92 -22 -22 1009.0 977.2
00 10.12 Ю 5 н/о {осадки} н/о -12.3 -13.2 93 -20 -20 1009.7 978.0 -22.4 -12.2 0.2
03 10.12 Ю 5 н/о н/о -16.2 -17.5 90 -25 -25 1009.1 977.3
06 10.12 Ю 4 н/о н/о -15.0 -16.2 91 -23 -23 1008.4 976.7 8
12 10.12 Ю 13 н/о н/о -15.0 -16.2 91 -28 -28 1001.6 970.2 84
18 10.12 ЮВ 6 н/о н/о -11.3 -12.1 94 -20 -20 998.7 967.4
21 10.12 Ю 11 н/о н/о -8.0 -8.6 95 -19 -19 996.4 965.3
00 11.12 ЮЗ 14 н/о н/о -8.5 -9.1 95 -20 -20 995.6 964.5
03 11.12 ЮЗ 12 н/о н/о -8.5 -9.0 96 -20 -20 994.1 963.1 0.3
06 11.12 ЮЗ 8 н/о н/о -10.0 -10.7 95 -20 -20 993.5 962.6 0.3 12
09 11.12 ЮЗ 11 н/о н/о -6.5 -6.9 97 -17 -17 993.7 963.0 0.2
12 11.12 З 9 н/о н/о -6.6 -7.0 97 -16 -16 994.7 963.9 -10.3 0.5 85
15 11.12 З 4 н/о н/о -11.8 -12.6 94 -19 -19 996.1 965.1
18 11.12 З 3 н/о н/о -12.9 -13.9 92 -19 -19 997.2 966.1 -6.1
21 11.12 СЗ 1 н/о н/о -12.5 -13.4 93 -13 -13 996.9 965.9
00 12.12 В 2 н/о н/о -12.5 -13.4 93 -17 -17 997.6 966.6 -13.2 -6.6
03 12.12 Ю 4 н/о н/о -10.1 -10.8 95 -17 -17 996.2 965.2

 

Местоположение метеостанции Robertson Lake (Канада): широта 65.10 долгота -102.40 высота над уровнем моря 244 м.

В архиве по умолчанию представлена погода в Robertson Lake за последнюю неделю. Архивные данные за месяц целиком и за предыдущие месяцы, начиная с января 2011 года, Вы можете получить, выбрав интересующий диапазон дат из раскрывающегося списка и нажав кнопку "Ввод!".


*Определитесь, кто Вы:
робот инопланетянин человек

Внимание! Время в таблицах - всемирное. Для получения местного времени необходимо прибавить поправку, которая в Robertson Lake равна -6 ч.

Смотрите также архив погоды в соседних городах и на ближайших метеорологических станциях:

Погода в Dubawnt Lake (Канада) (211 км)
Погода в Hanbury River ARS (Канада) (215 км)
Погода в Back River MAPS (Канада) (292 км)
Погода в Baker Lake Airport (Канада) (314 км)
Погода в Baker Lake Climate (Канада) (316 км)
Погода в Hat Island (Канада) (373 км)
Погода в Lupin (Канада) (413 км)
Погода в Lupin (maps) (Канада) (413 км)
Погода в Fort Reliance (aut) (Канада) (422 км)
Погода в Cambridge Bay Gsn (Канада) (460 км)

Пояснения к столбцам:

Ветер - указаны скорость ветра в м/с - средняя за 10 мин, порывы в срок и между сроками (в фигурных скобках) и направление, откуда дует ветер: С - северный, СВ - северо-восточный, В - восточный, ЮВ - юго-восточный, Ю - южный, ЮЗ - юго-западный, З - западный, СЗ - северо-западный.
Видимость - горизонтальная дальность видимости в метрах или километрах. При видимости от 1 до 10 км при отсутствии осадков обычно наблюдается дымка, при ухудшении видимости до 1 км и менее - туман. В сухую погоду видимость может ухудшаться дымом, пылью или мглою.
Явления - указаны атмосферные явления, наблюдавшиеся в срок или в последний час перед сроком; фигурными скобками обозначены явления, наблюдавшиеся между сроками (за 1-3 часа до срока); квадратными скобками обозначены град или гололедные отложения с указанием их диаметра в мм.
Облачность - указаны через наклонную черту общая и нижняя облачность в баллах и высота нижней границы облаков в метрах; квадратными скобками обозначены формы облаков: Ci - перистые, Cs - перисто-слоистые, Cc - перисто-кучевые, Ac - высококучевые, As - высокослоистые, Sc - слоисто-кучевые, Ns - слоисто-дождевые, Cu - кучевые, Cb - кучево-дождевые. Подробнее классификацию облаков см. в Атласе облаков (PDF).
T - Температура воздуха - температура, измеренная на высоте 2 м над землей.
Td - Температура точки росы - температура, при понижении до которой содержащийся в воздухе водяной пар достигнет насыщения.
f - Относительная влажность воздуха - влажноcть воздуха, измеренная на высоте 2 м над землей.
Te - Эффективная температура - температура, которую ощущает одетый по сезону человек в тени. Характеристика душности погоды. При расчете учитывается влияние влажности воздуха и скорости ветра на теплоощущения человека.
Tes - Эффективная температура на солнце - температура, которую ощущает человек, с поправкой на солнечный нагрев. Характеристика знойности погоды. Зависит от высоты солнца над горизонтом, облачности и скорости ветра. Ночью, в пасмурную погоду, а также при ветре 12 м/с и более поправка равна нулю.
P - Атмосферное давление - приведенное к уровню моря атмосферное давление.
Po - Атмосферное давление - измеренное на уровне метеостанции атмосферное давление.
Tmin - Минимальная температура - минимум температуры воздуха на высоте 2 м над землей.
Tmax - Максимальная температура - максимум температуры воздуха на высоте 2 м над землей.
R - Количество осадков - Количество выпавших осадков за период времени, мм. При наведении курсора мыши на число - период времени, за который выпало указанное количество осадков.
R24 - Количество осадков - Количество выпавших осадков за 24 часа, мм.
S - Снежный покров - Высота снежного покрова, см. При наведении курсора мыши на число - состояние снежного покрова и степень покрытия местности в баллах.